Showing default

GLOBAL-4, 44499

Orbit data source: Space-Track

GLOBAL-4, 44499 is a payload satellite owned by BlackSky Global (US) in LEO that was launched on Mon, 19 Aug 2019 UTC via an ELECTRON launch vehicle from the Rocket Lab Launch Complex (RLLC). Payload-class satellites include a variety of spacecraft equipped with specific instruments for various scientific and technological missions. These include communications satellites like Starlink; space stations such as the ISS; scientific satellites like the Hubble; Earth observation satellites from companies like Planet Labs, Umbra, and HawkEye 360; GPS; miniature CubeSats for education and research; and military/defense satellites.

Loading next visibility...
Identifier
44499, 2019-054E
Orbit
LEO
Country
Flag of USUS
Related business
Manufacturer
LeoStella
Mission
Operational Commercial Imaging
Bus & Motor
BSKY, Unknown motor
Mass
55 kg wet, ~50 kg dry
Launch date (UTC)
2019-08-19 (6 years ago)
Launch vehicle
ELECTRON
Launch site
Rocket Lab Launch Complex (RLLC)
Object type
Payload
Rocket body
Debris
Shape & HBR
Box, 1.0 m
Radar Cross Section
0.625 m², Medium (>0.1 m² and < 1m²)

Expand to show TLE details & history
Last TLE update: 8 hours ago

TLE from 8 hours ago
0 GLOBAL-4
1 44499U 19054E   25355.55888042  .00023425  00000-0  42708-3 0  9999
2 44499  45.0071 169.2670 0008485 233.6643 126.3466 15.49061899352686
Epoch: 2025-12-21T13:24Z
TLE epoch observation values (Epoch: 2025-12-21T13:24:47.268Z)
Latitude
0.00002°
Longitude
-122.29953°
Altitude
422.89 km
Speed
7.657 km/s
True Right ascension
11h 17m 04s
True Declination
0° 00' 00"
Sunlit
Object was in daylight at epoch
Visualization orbit readout
Latitude
Unknown
Longitude
Unknown
Altitude
Unknown
Speed
Unknown
Apparent Right ascension
Unknown
Apparent Declination
Unknown
Sunlit
N/A
Visualization observer readout
Local Sidereal Time
20:39:05
Azimuth
Unknown
Elevation
Unknown
Doppler factor
Unknown
Orbital elements
Apogee altitude
426.861 km
Perigee altitude
415.323 km
Semi-major axis
6,799.229 km
Eccentricity
0.00085
Inclination
45.0071°
RAAN
169.267°
Arg. of periapsis
233.6643°
True anomaly
126.42487°
Mean anomaly
126.3466°
Eccentric anomaly
126.38574°
Mean motion
3.87127 °/min
Orbital period
92.99 mins
BSTAR
0.00042708
Loading maneuver chart data...
Computing Atmospheric mass density...
Loading historical data...
Loading historical data...
Loading historical data...
Loading historical data...
Loading historical data...
Loading historical data...
Loading historical data...

Documentation

Showing up to 5 results
|